Location: Newark
(46.3567°N, 6.1428°E)
Time: 05:44:13
(UTC+00:00)

First-Move - Pass Details

Date: 27 September 2019
Orbit: 578 x 669 km, 97.6° (Epoch: 22 October)

Event Time Altitude Azimuth Distance (km) Brightness Sun altitude
Rises 04:40:02 0° 36° (NE) 2,844 ? -9.1°
Reaches altitude 10° 04:44:21 10° 78° (ENE) 1,957 ? -8.4°
Maximum altitude 04:45:01 10° 88° (E) 1,940 ? -8.3°
Drops below altitude 10° 04:45:41 10° 97° (E) 1,963 ? -8.1°
Sets 04:50:03 0° 139° (SE) 2,889 ? -7.4°
